SCP
0 0 0 0 0 0 0 0 0 0 0 0 0 0 0 0 0 0 0 -0 -0 0 0 0 0 0 0 -0 -0 -0 -0 -0 -0 -0 0 0 0 0 -0 -0 -0 0 0 0
0 0 0 0 0 0 0 0 0 0 0 0 0 0 0 0 0 0 0 0 0 0 -0 -0 -0 -0 -0 -0 -0 -0 -0 -0 -0 0 0 0 0 -0 -0 0 -0 -0 0 0
0 0 0 0 0 0 0 0 0 0 0 0 0 0 0 0 0 0 0 0 0 0 0 -0 -0 0 -0 -0 -0 -0 -0 0 0 0 0 0 0 0 0 0 0 -0 -0 -0
0 0 0 0 0 0 0 0 0 0 0 0 0 0 0 0 0 0 0 0 0 0 0 0 0 0 0 0 0 -0 -0 -0 -0 -0 0 0 0 0 0 0 0 0 0 0
0 0 0 0 0 0 0 0 0 0 0 0 0 0 0 0 0 0 0 0 0 0 0 0 0 0 0 0 0 0 0 -0 0 0 0 0 0 0 0 0 0 0 0 0
0 0 0 0 0 0 0 0 0 0 0 0 0 0 0 0 0 0 0 0 0 0 0 0 0 0 0 0 0 0 0 0 0 0 0 0 0 0 0 0 0 0 0 0
0 0 0 0 0 0 0 0 0 0 0 0 0 0 0 0 0 0 0 0 0 0 0 0 0 0 0 0 0 0 0 0 0 0 0 0 0 0 0 0 0 0 0 0
0 0 0 0 0 0 0 0 0 0 0 0 0 0 0 0 0 0 0 0 0 0 0 0 0 0 0 0 0 0 0 0 0 0 0 0 0 0 0 0 0 0 0 0
0 0 0 0 0 0 0 0 0 0 0 0 0 0 0 0 0 0 0 0 0 0 0 0 0 0 0 0 0 0 0 0 0 0 0 0 0 0 0 0 0 0 0 0
0 0 0 0 0 0 0 0 0 0 0 0 0 0 0 0 0 0 0 0 0 0 0 0 0 0 0 0 0 0 0 0 0 0 0 0 0 0 0 0 0 0 0 0
0 0 0 0 0 0 0 0 0 0 0 0 0 0 0 0 0 0 0 0 0 0 0 0 0 0 0 0 0 0 0 0 0 0 0 0 0 0 0 0 0 0 0 0
0 0 0 0 0 0 0 0 0 0 0 0 0 0 0 0 0 0 0 0 0 0 0 0 0 0 0 0 0 0 0 0 0 0 0 0 0 0 0 0 0 0 -0 0
0 0 0 0 0 0 0 0 0 0 0 0 0 0 0 0 0 0 0 0 0 0 0 0 0 0 0 0 0 0 0 0 0 0 0 0 0 0 0 0 0 0 0 0
0 0 0 0 0 0 0 0 0 0 0 0 0 0 0 0 0 0 0 0 0 0 0 0 0 0 0 0 0 0 0 0 0 0 0 0 0 0 0 0 0 0 0 0
0 0 0 0 0 0 0 0 0 0 0 0 0 0 0 0 0 0 0 0 0 0 0 0 0 0 0 0 0 0 0 0 0 0 0 0 0 0 0 0 0 0 0 0
0 0 0 0 0 0 0 0 0 0 0 0 0 0 0 0 0 0 0 0 0 0 0 0 0 0 0 0 -0 -0 0 0 0 0 0 0 0 0 0 0 0 0 0 0
0 0 0 0 0 0 0 0 0 0 0 0 0 0 0 0 0 0 0 0 0 0 0 0 -0 0 -0 -0 -0 -0 -0 0 0 0 0 0 0 0 0 0 0 0 0 0
0 0 0 0 0 0 0 0 0 0 0 0 0 0 0 0 0 0 0 0 0 0 0 0 -0 0 0 0 0 0 0 0 0 0 0 0 0 0 0 0 0 0 0 0
0 0 0 0 0 0 0 0 0 0 0 0 0 0 0 0 0 0 0 0 0 0 0 0 0 0 0 0 0 0 0 0 0 0 0 0 0 0 0 0 0 0 0 0
0 0 0 0 0 0 0 0 0 0 0 0 0 0 0 0 0 0 0 0 0 0 0 0 0 0 0 0 0 0 0 0 0 0 0 0 0 0 0 0 0 0 0 0
0 0 0 0 0 0 0 0 0 0 0 0 0 0 0 0 0 0 0 0 0 0 0 0 0 0 0 0 0 0 0 0 0 0 0 0 0 0 0 0 0 0 0 0
0 0 0 0 0 0 0 0 0 0 0 0 0 0 0 0 0 0 0 0 0 0 0 0 0 0 0 0 0 0 0 0 0 0 0 0 0 0 0 0 0 0 -0 -0
0 0 0 0 0 0 0 0 0 0 0 0 0 0 0 0 0 0 0 0 0 0 0 0 0 0 0 0 0 0 0 0 0 0 0 0 0 0 0 0 0 0 -0 -0
0 0 0 0 0 0 0 0 0 0 0 0 0 0 0 0 0 0 0 0 0 0 0 0 0 0 0 0 0 0 0 0 0 0 0 0 0 0 0 0 0 0 0 -0
0 0 0 0 0 0 0 0 0 0 0 0 0 0 0 0 0 0 0 0 0 0 0 0 0 0 0 0 0 0 0 0 0 0 0 0 0 0 0 0 0 0 0 -0
0 0 0 0 0 0 0 0 0 0 0 0 0 0 0 0 0 0 0 0 0 0 0 0 0 0 0 0 0 0 0 0 0 0 0 0 0 0 0 0 0 0 0 0
0 0 0 0 0 0 0 0 0 0 0 0 0 0 0 0 0 0 0 0 0 0 0 0 0 0 0 0 0 0 0 0 0 0 0 0 0 0 0 0 0 0 0 0
Wind_Speed_500mb
17 20 19 20 26 36 31 31 24 45 44 46 38 9 13 9 10 5 11 19 16 17 25 28 30 31 39 45 47 53 55 57 62 66 68 70 72 76 81 83 83 81 81 79
12 11 20 30 43 37 37 41 44 43 47 25 19 9 2 2 7 2 10 15 20 21 21 27 32 38 44 50 53 57 62 67 68 69 73 78 81 85 86 87 88 92 93 93
12 4 8 14 36 40 37 39 39 36 25 4 4 1 5 9 10 16 19 18 19 25 32 31 32 30 35 37 42 52 66 71 73 76 79 80 80 82 86 90 92 96 99 99
8 9 7 17 5 11 17 24 12 11 6 12 7 8 9 11 25 21 11 20 27 29 31 38 43 48 48 50 57 67 72 75 77 78 81 84 87 92 98 101 105 108 111 111
7 13 18 31 12 5 7 13 5 7 10 15 8 16 19 12 19 25 33 32 30 30 35 33 41 50 57 65 70 74 76 78 79 77 82 87 96 102 108 109 116 120 122 126
4 9 15 2 11 14 6 15 18 17 11 4 11 3 10 28 34 37 33 28 30 34 40 46 51 58 66 71 76 78 80 85 91 94 96 93 94 95 94 95 107 112 125 134
24 15 13 2 9 14 7 23 17 29 23 15 7 25 48 41 35 31 29 37 44 44 49 51 57 65 71 75 80 84 93 99 102 102 103 103 103 101 100 100 105 107 112 124
3 4 14 4 11 12 9 3 15 24 27 37 52 52 42 42 36 30 38 45 47 52 55 59 65 71 80 87 93 97 99 101 103 105 105 105 103 104 98 88 84 89 93 102
13 11 9 16 21 25 25 36 45 49 58 62 50 49 47 38 37 41 43 42 47 53 58 60 66 77 88 93 93 96 98 100 103 104 101 94 89 87 86 80 77 79 79 84
11 18 34 68 65 68 71 65 61 54 59 61 56 50 47 48 45 41 43 45 49 54 56 65 74 81 84 85 85 90 96 99 99 98 90 82 79 80 81 81 80 79 80 86
22 25 52 57 64 68 68 74 72 65 55 59 57 51 48 44 41 41 43 45 48 51 60 72 78 79 77 75 79 86 89 92 93 86 82 83 80 77 74 77 77 82 88 92
21 48 42 46 61 61 54 55 52 51 56 62 55 46 40 41 42 42 43 42 46 53 65 73 75 76 70 69 73 80 87 86 83 83 82 81 82 85 73 68 70 73 78 83
53 65 64 68 72 73 63 51 58 62 58 48 45 40 41 39 40 40 40 43 50 60 67 67 68 66 62 67 72 76 80 80 80 80 79 78 79 83 88 89 76 74 74 74
72 61 53 60 47 50 51 50 50 50 48 44 45 44 39 39 40 40 39 46 56 64 62 59 59 57 59 65 69 74 73 74 74 77 76 77 80 83 86 89 93 97 81 76
71 63 63 61 55 50 50 51 48 43 41 39 40 39 41 39 39 39 42 50 59 59 55 55 53 52 56 61 68 72 71 73 73 73 72 72 73 76 79 82 86 91 96 91
54 48 46 43 40 39 39 39 38 38 38 39 38 37 37 38 40 44 47 51 58 56 48 47 47 49 52 58 65 67 69 72 69 67 66 66 68 73 78 77 78 75 76 75
39 45 45 38 35 37 39 35 32 32 34 35 37 38 39 43 49 49 48 48 50 47 39 40 42 44 45 51 59 60 66 65 62 63 61 62 65 65 65 69 70 69 68 65
47 42 41 37 34 32 32 31 30 30 31 34 38 42 45 50 54 54 49 48 43 36 29 31 35 37 39 43 47 53 56 57 56 57 57 57 59 58 59 60 60 61 61 57
34 33 31 29 27 28 28 29 29 31 32 37 43 46 49 49 50 52 49 46 38 34 25 27 29 30 32 34 41 45 48 51 51 50 50 52 54 55 57 56 54 54 55 56
25 24 24 24 24 25 26 28 30 32 34 42 47 51 52 48 47 48 43 40 31 29 26 27 27 27 28 30 35 38 41 46 49 47 47 49 49 53 56 56 56 58 58 58
22 22 22 22 21 22 25 28 33 35 37 43 49 48 46 44 40 38 36 33 21 23 25 25 25 25 25 28 30 32 35 39 43 47 48 48 48 49 52 55 57 59 59 59
23 22 19 18 19 21 27 30 35 36 37 37 38 40 40 36 30 25 24 27 21 21 23 21 20 21 24 25 27 27 29 32 36 40 42 43 45 46 48 50 51 52 53 54
19 17 16 16 19 22 24 29 30 33 32 32 31 29 28 26 22 24 22 19 20 21 20 20 21 22 22 25 26 25 26 28 30 33 36 38 40 41 43 45 46 47 47 48
15 12 12 16 20 22 22 24 25 25 25 22 21 20 21 21 19 19 19 19 20 19 18 19 20 21 24 25 25 25 26 26 28 29 30 32 33 35 37 38 39 40 40 41
9 10 12 13 15 17 18 19 18 16 16 16 16 17 17 18 18 17 20 19 18 19 18 19 19 20 22 23 23 24 24 26 28 28 29 29 30 32 32 33 34 35 35 35
7 8 8 8 9 11 13 14 14 14 14 14 13 17 16 17 17 18 18 18 18 17 18 18 18 19 20 22 23 23 24 25 26 28 29 29 29 29 30 30 31 32 32 32
4 2 1 3 6 9 11 12 12 13 14 14 15 15 16 17 17 17 17 17 18 18 19 20 22 22 23 23 24 25 25 26 27 28 29 29 29 30 30 31 31 30 29 28
Wind_Direction_500mb
278 290 305 295 277 274 273 266 257 272 280 279 291 310 64 104 116 153 248 257 256 269 296 307 307 312 326 329 333 334 332 326 322 323 322 320 317 315 314 314 314 313 311 310
286 276 270 269 266 270 270 268 267 267 269 294 34 37 3 83 138 11 345 322 324 276 276 278 282 291 308 314 318 321 324 324 320 316 314 314 312 310 308 307 305 305 304 304
254 35 345 299 248 249 256 260 265 273 284 350 305 254 75 36 329 300 293 299 314 306 292 289 287 288 288 291 288 303 310 314 314 313 311 309 307 304 303 303 302 300 300 298
258 47 247 251 117 327 275 274 283 280 167 168 138 23 338 306 287 285 297 309 308 299 293 299 287 284 285 292 298 310 314 314 314 312 310 308 306 302 300 299 297 295 293 292
202 207 280 306 299 339 95 280 209 210 198 187 30 327 291 309 321 319 308 302 302 299 297 294 289 290 297 303 312 314 314 313 311 306 302 300 299 298 298 296 294 291 289 288
182 200 225 283 106 122 113 269 219 192 163 97 321 4 271 302 297 298 292 295 290 287 293 296 300 303 306 310 313 314 312 309 307 304 301 297 294 292 289 285 286 287 288 288
233 248 271 271 120 112 138 270 166 184 183 253 235 267 288 291 285 288 279 280 283 290 301 305 308 311 313 315 316 314 312 310 308 307 306 303 301 298 294 288 283 282 281 282
163 219 279 162 132 173 233 104 198 204 250 280 300 297 291 283 279 272 271 277 289 301 308 313 315 317 317 316 317 315 313 311 311 310 310 309 308 306 305 300 291 286 285 284
178 203 228 216 233 240 268 282 280 271 281 289 290 291 290 280 265 270 278 287 296 303 309 313 315 317 315 316 316 314 313 314 315 315 315 315 314 313 312 310 301 293 289 288
245 248 258 265 269 270 275 281 284 279 284 285 285 283 277 265 268 277 286 291 299 306 310 314 317 317 317 318 317 316 316 318 320 320 319 318 317 315 310 305 300 295 293 291
250 252 259 266 268 271 273 273 277 280 283 283 273 271 271 262 272 280 284 292 301 307 311 314 317 317 319 320 318 318 319 322 323 321 322 319 317 314 307 302 299 298 295 293
249 251 253 265 277 280 272 273 281 282 285 278 269 264 257 263 271 275 284 293 299 306 311 315 316 317 322 321 320 322 324 323 326 326 324 321 317 314 316 301 299 296 294 292
254 260 262 272 280 279 275 274 284 286 279 267 263 258 267 269 271 279 289 297 303 310 314 317 315 318 322 322 326 326 323 328 330 329 326 322 319 315 309 319 315 306 302 299
256 260 269 274 270 272 273 274 276 271 265 258 255 264 264 267 277 286 293 302 308 311 316 315 315 320 324 327 328 327 331 333 334 332 328 327 323 317 312 309 309 316 329 316
262 263 266 269 269 271 273 274 271 264 261 260 265 267 270 274 278 287 298 306 306 311 315 312 316 323 326 330 332 329 339 339 337 333 331 327 325 320 316 311 310 310 317 326
260 261 263 265 270 270 268 265 263 263 267 270 270 269 272 277 285 294 303 306 307 310 312 311 316 323 329 333 330 336 345 345 339 336 335 334 333 329 321 317 317 316 319 324
250 261 266 267 266 267 268 268 261 258 262 266 271 273 277 283 289 298 303 302 301 305 309 311 317 324 330 335 331 342 347 344 342 343 342 340 337 335 335 328 325 325 328 331
262 264 270 273 273 265 261 257 256 259 262 264 268 276 285 290 297 301 303 299 299 301 303 306 316 322 330 332 334 349 346 348 349 349 347 346 345 346 346 342 341 342 345 348
261 262 260 257 256 253 250 251 255 259 265 272 278 283 287 294 298 297 298 297 301 298 299 307 312 322 328 334 343 346 352 355 355 354 352 354 357 0 2 1 0 1 3 5
250 252 251 247 243 242 247 254 263 272 280 285 289 294 296 296 293 294 294 294 295 292 299 310 314 320 332 341 346 346 356 360 2 2 3 7 9 11 15 18 19 21 22 23
232 234 233 238 248 259 267 274 281 288 290 290 289 290 293 297 298 293 289 285 287 289 299 305 308 319 333 342 344 349 357 3 6 8 10 13 16 19 22 25 26 27 30 33
219 220 230 246 263 278 289 294 295 295 297 299 300 300 299 300 294 284 282 287 289 290 299 304 313 324 332 337 337 344 352 0 6 10 13 15 16 18 21 23 25 28 28 30
204 219 242 266 284 292 295 298 304 307 309 307 304 303 300 299 296 292 290 282 292 299 304 311 318 322 331 335 335 338 345 353 360 4 8 11 14 16 19 21 23 25 27 29
217 238 266 285 296 304 312 311 315 317 315 313 309 308 308 304 295 289 283 287 297 301 307 314 319 326 333 333 334 339 345 349 351 353 355 358 3 8 11 15 19 21 24 26
234 265 286 301 309 314 322 325 323 315 320 318 315 309 307 302 297 291 291 294 299 303 310 314 317 325 327 327 331 337 342 346 348 349 350 351 353 355 357 359 2 6 10 14
265 284 293 301 316 325 326 328 327 324 325 317 307 297 303 306 302 301 301 303 304 313 317 317 321 323 324 327 331 333 339 343 343 343 344 346 349 350 352 353 353 353 356 358
228 223 268 312 332 337 334 330 332 332 326 320 322 317 316 316 315 314 315 319 318 318 318 319 318 318 321 324 322 326 334 334 335 336 337 340 344 348 350 350 351 350 350 351
Wind_Speed_850mb
17 20 19 20 26 36 31 31 24 45 44 46 38 9 13 9 10 5 11 19 16 17 25 28 30 31 39 45 47 53 55 57 62 66 68 70 72 76 81 83 83 81 81 79
12 11 20 30 43 37 37 41 44 43 47 25 19 9 2 2 7 2 10 15 20 21 21 27 32 38 44 50 53 57 62 67 68 69 73 78 81 85 86 87 88 92 93 93
12 4 8 14 36 40 37 39 39 36 25 4 4 1 5 9 10 16 19 18 19 25 32 31 32 30 35 37 42 52 66 71 73 76 79 80 80 82 86 90 92 96 99 99
8 9 7 17 5 11 17 24 12 11 6 12 7 8 9 11 25 21 11 20 27 29 31 38 43 48 48 50 57 67 72 75 77 78 81 84 87 92 98 101 105 108 111 111
7 13 18 31 12 5 7 13 5 7 10 15 8 16 19 12 19 25 33 32 30 30 35 33 41 50 57 65 70 74 76 78 79 77 82 87 96 102 108 109 116 120 122 126
4 9 15 2 11 14 6 15 18 17 11 4 11 3 10 28 34 37 33 28 30 34 40 46 51 58 66 71 76 78 80 85 91 94 96 93 94 95 94 95 107 112 125 134
24 15 13 2 9 14 7 23 17 29 23 15 7 25 48 41 35 31 29 37 44 44 49 51 57 65 71 75 80 84 93 99 102 102 103 103 103 101 100 100 105 107 112 124
3 4 14 4 11 12 9 3 15 24 27 37 52 52 42 42 36 30 38 45 47 52 55 59 65 71 80 87 93 97 99 101 103 105 105 105 103 104 98 88 84 89 93 102
13 11 9 16 21 25 25 36 45 49 58 62 50 49 47 38 37 41 43 42 47 53 58 60 66 77 88 93 93 96 98 100 103 104 101 94 89 87 86 80 77 79 79 84
11 18 34 68 65 68 71 65 61 54 59 61 56 50 47 48 45 41 43 45 49 54 56 65 74 81 84 85 85 90 96 99 99 98 90 82 79 80 81 81 80 79 80 86
22 25 52 57 64 68 68 74 72 65 55 59 57 51 48 44 41 41 43 45 48 51 60 72 78 79 77 75 79 86 89 92 93 86 82 83 80 77 74 77 77 82 88 92
21 48 42 46 61 61 54 55 52 51 56 62 55 46 40 41 42 42 43 42 46 53 65 73 75 76 70 69 73 80 87 86 83 83 82 81 82 85 73 68 70 73 78 83
53 65 64 68 72 73 63 51 58 62 58 48 45 40 41 39 40 40 40 43 50 60 67 67 68 66 62 67 72 76 80 80 80 80 79 78 79 83 88 89 76 74 74 74
72 61 53 60 47 50 51 50 50 50 48 44 45 44 39 39 40 40 39 46 56 64 62 59 59 57 59 65 69 74 73 74 74 77 76 77 80 83 86 89 93 97 81 76
71 63 63 61 55 50 50 51 48 43 41 39 40 39 41 39 39 39 42 50 59 59 55 55 53 52 56 61 68 72 71 73 73 73 72 72 73 76 79 82 86 91 96 91
54 48 46 43 40 39 39 39 38 38 38 39 38 37 37 38 40 44 47 51 58 56 48 47 47 49 52 58 65 67 69 72 69 67 66 66 68 73 78 77 78 75 76 75
39 45 45 38 35 37 39 35 32 32 34 35 37 38 39 43 49 49 48 48 50 47 39 40 42 44 45 51 59 60 66 65 62 63 61 62 65 65 65 69 70 69 68 65
47 42 41 37 34 32 32 31 30 30 31 34 38 42 45 50 54 54 49 48 43 36 29 31 35 37 39 43 47 53 56 57 56 57 57 57 59 58 59 60 60 61 61 57
34 33 31 29 27 28 28 29 29 31 32 37 43 46 49 49 50 52 49 46 38 34 25 27 29 30 32 34 41 45 48 51 51 50 50 52 54 55 57 56 54 54 55 56
25 24 24 24 24 25 26 28 30 32 34 42 47 51 52 48 47 48 43 40 31 29 26 27 27 27 28 30 35 38 41 46 49 47 47 49 49 53 56 56 56 58 58 58
22 22 22 22 21 22 25 28 33 35 37 43 49 48 46 44 40 38 36 33 21 23 25 25 25 25 25 28 30 32 35 39 43 47 48 48 48 49 52 55 57 59 59 59
23 22 19 18 19 21 27 30 35 36 37 37 38 40 40 36 30 25 24 27 21 21 23 21 20 21 24 25 27 27 29 32 36 40 42 43 45 46 48 50 51 52 53 54
19 17 16 16 19 22 24 29 30 33 32 32 31 29 28 26 22 24 22 19 20 21 20 20 21 22 22 25 26 25 26 28 30 33 36 38 40 41 43 45 46 47 47 48
15 12 12 16 20 22 22 24 25 25 25 22 21 20 21 21 19 19 19 19 20 19 18 19 20 21 24 25 25 25 26 26 28 29 30 32 33 35 37 38 39 40 40 41
9 10 12 13 15 17 18 19 18 16 16 16 16 17 17 18 18 17 20 19 18 19 18 19 19 20 22 23 23 24 24 26 28 28 29 29 30 32 32 33 34 35 35 35
7 8 8 8 9 11 13 14 14 14 14 14 13 17 16 17 17 18 18 18 18 17 18 18 18 19 20 22 23 23 24 25 26 28 29 29 29 29 30 30 31 32 32 32
4 2 1 3 6 9 11 12 12 13 14 14 15 15 16 17 17 17 17 17 18 18 19 20 22 22 23 23 24 25 25 26 27 28 29 29 29 30 30 31 31 30 29 28
Wind_Direction_850mb
278 290 305 295 277 274 273 266 257 272 280 279 291 310 64 104 116 153 248 257 256 269 296 307 307 312 326 329 333 334 332 326 322 323 322 320 317 315 314 314 314 313 311 310
286 276 270 269 266 270 270 268 267 267 269 294 34 37 3 83 138 11 345 322 324 276 276 278 282 291 308 314 318 321 324 324 320 316 314 314 312 310 308 307 305 305 304 304
254 35 345 299 248 249 256 260 265 273 284 350 305 254 75 36 329 300 293 299 314 306 292 289 287 288 288 291 288 303 310 314 314 313 311 309 307 304 303 303 302 300 300 298
258 47 247 251 117 327 275 274 283 280 167 168 138 23 338 306 287 285 297 309 308 299 293 299 287 284 285 292 298 310 314 314 314 312 310 308 306 302 300 299 297 295 293 292
202 207 280 306 299 339 95 280 209 210 198 187 30 327 291 309 321 319 308 302 302 299 297 294 289 290 297 303 312 314 314 313 311 306 302 300 299 298 298 296 294 291 289 288
182 200 225 283 106 122 113 269 219 192 163 97 321 4 271 302 297 298 292 295 290 287 293 296 300 303 306 310 313 314 312 309 307 304 301 297 294 292 289 285 286 287 288 288
233 248 271 271 120 112 138 270 166 184 183 253 235 267 288 291 285 288 279 280 283 290 301 305 308 311 313 315 316 314 312 310 308 307 306 303 301 298 294 288 283 282 281 282
163 219 279 162 132 173 233 104 198 204 250 280 300 297 291 283 279 272 271 277 289 301 308 313 315 317 317 316 317 315 313 311 311 310 310 309 308 306 305 300 291 286 285 284
178 203 228 216 233 240 268 282 280 271 281 289 290 291 290 280 265 270 278 287 296 303 309 313 315 317 315 316 316 314 313 314 315 315 315 315 314 313 312 310 301 293 289 288
245 248 258 265 269 270 275 281 284 279 284 285 285 283 277 265 268 277 286 291 299 306 310 314 317 317 317 318 317 316 316 318 320 320 319 318 317 315 310 305 300 295 293 291
250 252 259 266 268 271 273 273 277 280 283 283 273 271 271 262 272 280 284 292 301 307 311 314 317 317 319 320 318 318 319 322 323 321 322 319 317 314 307 302 299 298 295 293
249 251 253 265 277 280 272 273 281 282 285 278 269 264 257 263 271 275 284 293 299 306 311 315 316 317 322 321 320 322 324 323 326 326 324 321 317 314 316 301 299 296 294 292
254 260 262 272 280 279 275 274 284 286 279 267 263 258 267 269 271 279 289 297 303 310 314 317 315 318 322 322 326 326 323 328 330 329 326 322 319 315 309 319 315 306 302 299
256 260 269 274 270 272 273 274 276 271 265 258 255 264 264 267 277 286 293 302 308 311 316 315 315 320 324 327 328 327 331 333 334 332 328 327 323 317 312 309 309 316 329 316
262 263 266 269 269 271 273 274 271 264 261 260 265 267 270 274 278 287 298 306 306 311 315 312 316 323 326 330 332 329 339 339 337 333 331 327 325 320 316 311 310 310 317 326
260 261 263 265 270 270 268 265 263 263 267 270 270 269 272 277 285 294 303 306 307 310 312 311 316 323 329 333 330 336 345 345 339 336 335 334 333 329 321 317 317 316 319 324
250 261 266 267 266 267 268 268 261 258 262 266 271 273 277 283 289 298 303 302 301 305 309 311 317 324 330 335 331 342 347 344 342 343 342 340 337 335 335 328 325 325 328 331
262 264 270 273 273 265 261 257 256 259 262 264 268 276 285 290 297 301 303 299 299 301 303 306 316 322 330 332 334 349 346 348 349 349 347 346 345 346 346 342 341 342 345 348
261 262 260 257 256 253 250 251 255 259 265 272 278 283 287 294 298 297 298 297 301 298 299 307 312 322 328 334 343 346 352 355 355 354 352 354 357 0 2 1 0 1 3 5
250 252 251 247 243 242 247 254 263 272 280 285 289 294 296 296 293 294 294 294 295 292 299 310 314 320 332 341 346 346 356 360 2 2 3 7 9 11 15 18 19 21 22 23
232 234 233 238 248 259 267 274 281 288 290 290 289 290 293 297 298 293 289 285 287 289 299 305 308 319 333 342 344 349 357 3 6 8 10 13 16 19 22 25 26 27 30 33
219 220 230 246 263 278 289 294 295 295 297 299 300 300 299 300 294 284 282 287 289 290 299 304 313 324 332 337 337 344 352 0 6 10 13 15 16 18 21 23 25 28 28 30
204 219 242 266 284 292 295 298 304 307 309 307 304 303 300 299 296 292 290 282 292 299 304 311 318 322 331 335 335 338 345 353 360 4 8 11 14 16 19 21 23 25 27 29
217 238 266 285 296 304 312 311 315 317 315 313 309 308 308 304 295 289 283 287 297 301 307 314 319 326 333 333 334 339 345 349 351 353 355 358 3 8 11 15 19 21 24 26
234 265 286 301 309 314 322 325 323 315 320 318 315 309 307 302 297 291 291 294 299 303 310 314 317 325 327 327 331 337 342 346 348 349 350 351 353 355 357 359 2 6 10 14
265 284 293 301 316 325 326 328 327 324 325 317 307 297 303 306 302 301 301 303 304 313 317 317 321 323 324 327 331 333 339 343 343 343 344 346 349 350 352 353 353 353 356 358
228 223 268 312 332 337 334 330 332 332 326 320 322 317 316 316 315 314 315 319 318 318 318 319 318 318 321 324 322 326 334 334 335 336 337 340 344 348 350 350 351 350 350 351